| time (UTC) | temp F | wind direction | speed MPH | gust MPH | rain 1hr in | rain 24hr in | rain mn in | humidity % | barometer mb |
| 20260506174557 | 65 | 313 | 1.0 | 5.0 | 0.00 | 0.00 | 0.00 | 35 | 1025.5 |
| 20260506174058 | 64 | 0 | 2.0 | 5.0 | 0.00 | 0.00 | 0.00 | 37 | 1025.5 |
| 20260506173558 | 62 | 72 | 2.0 | 6.0 | 0.00 | 0.00 | 0.00 | 39 | 1025.5 |
| 20260506173126 | 62 | 218 | 3.0 | 6.0 | 0.00 | 0.00 | 0.00 | 38 | 1025.3 |
| 20260506172558 | 62 | 288 | 1.0 | 5.0 | 0.00 | 0.00 | 0.00 | 38 | 1025.3 |
| 20260506172058 | 62 | 298 | 3.0 | 5.0 | 0.00 | 0.00 | 0.00 | 39 | 1025.3 |
| 20260506171604 | 62 | 54 | 3.0 | 5.0 | 0.00 | 0.00 | 0.00 | 39 | 1025.1 |
| 20260506171059 | 63 | 275 | 1.0 | 3.0 | 0.00 | 0.00 | 0.00 | 39 | 1025.3 |
| 20260506170559 | 62 | 66 | 1.0 | 4.0 | 0.00 | 0.00 | 0.00 | 39 | 1025.3 |
| 20260506170109 | 61 | 27 | 1.0 | 4.0 | 0.00 | 0.00 | 0.00 | 43 | 1025.3 |
| 20260506165559 | 61 | 50 | 1.0 | 3.0 | 0.00 | 0.01 | 0.00 | 48 | 1025.3 |
| 20260506165059 | 59 | 0 | 1.0 | 3.0 | 0.00 | 0.01 | 0.00 | 46 | 1025.3 |
| 20260506164559 | 58 | 0 | 0.0 | 3.0 | 0.00 | 0.01 | 0.00 | 53 | 1025.2 |
| 20260506164058 | 57 | 0 | 1.0 | 3.0 | 0.00 | 0.01 | 0.00 | 54 | 1025.2 |
| 20260506163558 | 57 | 308 | 0.0 | 2.0 | 0.00 | 0.01 | 0.00 | 54 | 1025.1 |
| 20260506163100 | 56 | 70 | 0.0 | 4.0 | 0.00 | 0.01 | 0.00 | 57 | 1025.3 |
| 20260506162558 | 54 | 0 | 1.0 | 4.0 | 0.00 | 0.01 | 0.00 | 59 | 1025.2 |
| 20260506162058 | 54 | 49 | 1.0 | 4.0 | 0.00 | 0.01 | 0.00 | 60 | 1025.3 |
| 20260506161559 | 53 | 23 | 1.0 | 5.0 | 0.00 | 0.01 | 0.00 | 63 | 1025.2 |
| 20260506161058 | 52 | 57 | 3.0 | 5.0 | 0.00 | 0.01 | 0.00 | 62 | 1025.0 |
| 20260506160558 | 53 | 9 | 1.0 | 3.0 | 0.00 | 0.01 | 0.00 | 62 | 1025.0 |
| 20260506160059 | 52 | 305 | 0.0 | 3.0 | 0.00 | 0.01 | 0.00 | 65 | 1025.1 |
| 20260506155602 | 51 | 53 | 1.0 | 4.0 | 0.00 | 0.05 | 0.00 | 64 | 1025.1 |
| 20260506155102 | 50 | 0 | 1.0 | 4.0 | 0.00 | 0.05 | 0.00 | 64 | 1025.1 |
| 20260506154613 | 50 | 34 | 2.0 | 4.0 | 0.00 | 0.05 | 0.00 | 66 | 1025.1 |
| 20260506154058 | 50 | 0 | 0.0 | 3.0 | 0.00 | 0.05 | 0.00 | 68 | 1025.1 |
| 20260506153558 | 49 | 45 | 1.0 | 3.0 | 0.00 | 0.05 | 0.00 | 70 | 1024.9 |
| 20260506153059 | 48 | 48 | 1.0 | 3.0 | 0.00 | 0.05 | 0.00 | 72 | 1024.9 |
| 20260506152559 | 47 | 56 | 0.0 | 3.0 | 0.00 | 0.05 | 0.00 | 74 | 1025.0 |
| 20260506152101 | 47 | 88 | 0.0 | 3.0 | 0.00 | 0.05 | 0.00 | 76 | 1025.0 |
| 20260506151558 | 46 | 94 | 1.0 | 3.0 | 0.00 | 0.05 | 0.00 | 75 | 1025.1 |
| 20260506151058 | 46 | 0 | 1.0 | 2.0 | 0.00 | 0.05 | 0.00 | 79 | 1025.1 |
| 20260506150600 | 45 | 46 | 0.0 | 2.0 | 0.00 | 0.05 | 0.00 | 80 | 1025.1 |
| 20260506150057 | 44 | 62 | 1.0 | 2.0 | 0.00 | 0.05 | 0.00 | 80 | 1025.2 |
| 20260506145559 | 44 | 77 | 1.0 | 2.0 | 0.00 | 0.10 | 0.00 | 79 | 1024.9 |
| 20260506145058 | 44 | 70 | 0.0 | 2.0 | 0.00 | 0.10 | 0.00 | 82 | 1025.1 |
| 20260506144607 | 43 | 65 | 1.0 | 2.0 | 0.00 | 0.10 | 0.00 | 82 | 1024.9 |
| 20260506144101 | 43 | 55 | 1.0 | 2.0 | 0.00 | 0.10 | 0.00 | 83 | 1024.8 |
| 20260506143602 | 42 | 0 | 0.0 | 1.0 | 0.00 | 0.10 | 0.00 | 83 | 1024.8 |
| 20260506143058 | 42 | 0 | 0.0 | 1.0 | 0.00 | 0.10 | 0.00 | 82 | 1024.6 |
| 20260506142558 | 42 | 0 | 0.0 | 1.0 | 0.00 | 0.10 | 0.00 | 84 | 1024.7 |
| 20260506142058 | 41 | 0 | 0.0 | 1.0 | 0.00 | 0.10 | 0.00 | 83 | 1024.7 |
| 20260506141602 | 41 | 0 | 0.0 | 0.0 | 0.00 | 0.10 | 0.00 | 85 | 1024.6 |
| 20260506141100 | 40 | 0 | 0.0 | 0.0 | 0.00 | 0.10 | 0.00 | 86 | 1024.5 |
| 20260506140602 | 39 | 0 | 0.0 | 0.0 | 0.00 | 0.10 | 0.00 | 87 | 1024.4 |
| 20260506140058 | 38 | 0 | 0.0 | 1.0 | 0.00 | 0.10 | 0.00 | 90 | 1024.4 |
| 20260506135559 | 36 | 0 | 0.0 | 2.0 | 0.00 | 0.11 | 0.00 | 92 | 1024.3 |
| 20260506135058 | 34 | 0 | 0.0 | 2.0 | 0.00 | 0.11 | 0.00 | 92 | 1024.2 |
| 20260506134556 | 33 | 169 | 0.0 | 1.0 | 0.00 | 0.11 | 0.00 | 92 | 1024.2 |
| 20260506134102 | 33 | 0 | 0.0 | 0.0 | 0.00 | 0.11 | 0.00 | 92 | 1024.0 |
| 20260506133559 | 33 | 0 | 0.0 | 0.0 | 0.00 | 0.11 | 0.00 | 92 | 1024.0 |
| 20260506133126 | 33 | 0 | 0.0 | 0.0 | 0.00 | 0.11 | 0.00 | 92 | 1023.8 |
| 20260506132558 | 33 | 0 | 0.0 | 2.0 | 0.00 | 0.11 | 0.00 | 92 | 1023.9 |
| 20260506132058 | 33 | 0 | 0.0 | 2.0 | 0.00 | 0.11 | 0.00 | 92 | 1023.8 |
| 20260506131558 | 33 | 219 | 0.0 | 2.0 | 0.00 | 0.11 | 0.00 | 92 | 1023.8 |
| 20260506131058 | 33 | 0 | 0.0 | 1.0 | 0.00 | 0.11 | 0.00 | 92 | 1023.8 |
| 20260506130559 | 32 | 0 | 0.0 | 1.0 | 0.00 | 0.11 | 0.00 | 91 | 1023.7 |
| 20260506130122 | 33 | 0 | 0.0 | 0.0 | 0.00 | 0.11 | 0.00 | 92 | 1023.5 |
| 20260506125559 | 33 | 0 | 0.0 | 0.0 | 0.00 | 0.11 | 0.00 | 91 | 1023.6 |
| 20260506125058 | 33 | 0 | 0.0 | 1.0 | 0.00 | 0.11 | 0.00 | 91 | 1023.4 |
| 20260506124559 | 33 | 0 | 0.0 | 1.0 | 0.00 | 0.11 | 0.00 | 91 | 1023.2 |
| 20260506124058 | 33 | 0 | 0.0 | 1.0 | 0.00 | 0.11 | 0.00 | 91 | 1023.3 |
| 20260506123558 | 33 | 0 | 0.0 | 1.0 | 0.00 | 0.11 | 0.00 | 90 | 1023.1 |
| 20260506123057 | 34 | 0 | 0.0 | 1.0 | 0.00 | 0.11 | 0.00 | 91 | 1023.1 |
| 20260506122602 | 34 | 0 | 0.0 | 1.0 | 0.00 | 0.11 | 0.00 | 91 | 1023.0 |
| 20260506122058 | 34 | 0 | 0.0 | 1.0 | 0.00 | 0.11 | 0.00 | 91 | 1023.1 |
| 20260506121559 | 33 | 0 | 0.0 | 1.0 | 0.00 | 0.11 | 0.00 | 90 | 1022.9 |
| 20260506121059 | 34 | 184 | 0.0 | 1.0 | 0.00 | 0.11 | 0.00 | 89 | 1022.9 |
| 20260506120601 | 34 | 0 | 0.0 | 0.0 | 0.00 | 0.11 | 0.00 | 90 | 1022.9 |
| 20260506120058 | 34 | 0 | 0.0 | 2.0 | 0.00 | 0.11 | 0.00 | 90 | 1022.7 |
| 20260506115602 | 34 | 0 | 0.0 | 2.0 | 0.00 | 0.11 | 0.00 | 90 | 1022.7 |
| 20260506115058 | 34 | 188 | 1.0 | 2.0 | 0.00 | 0.11 | 0.00 | 89 | 1022.6 |
| 20260506114605 | 34 | 0 | 0.0 | 1.0 | 0.00 | 0.11 | 0.00 | 89 | 1022.8 |
| 20260506114058 | 34 | 184 | 0.0 | 1.0 | 0.00 | 0.11 | 0.00 | 88 | 1022.7 |
| 20260506113558 | 34 | 0 | 0.0 | 1.0 | 0.00 | 0.11 | 0.00 | 88 | 1022.6 |
| 20260506113058 | 35 | 0 | 0.0 | 1.0 | 0.00 | 0.11 | 0.00 | 89 | 1022.6 |
| 20260506112600 | 35 | 0 | 0.0 | 1.0 | 0.00 | 0.11 | 0.00 | 88 | 1022.6 |
| 20260506112102 | 35 | 0 | 0.0 | 4.0 | 0.00 | 0.11 | 0.00 | 87 | 1022.6 |
| 20260506111556 | 35 | 0 | 1.0 | 4.0 | 0.00 | 0.11 | 0.00 | 88 | 1022.5 |
| 20260506111058 | 35 | 0 | 0.0 | 2.0 | 0.00 | 0.11 | 0.00 | 89 | 1022.6 |
| 20260506110559 | 35 | 188 | 0.0 | 2.0 | 0.00 | 0.11 | 0.00 | 87 | 1022.6 |
| 20260506110100 | 35 | 0 | 0.0 | 2.0 | 0.00 | 0.11 | 0.00 | 87 | 1022.6 |
| 20260506105559 | 36 | 0 | 0.0 | 2.0 | 0.00 | 0.11 | 0.00 | 87 | 1022.6 |
| 20260506105059 | 36 | 197 | 0.0 | 1.0 | 0.00 | 0.11 | 0.00 | 87 | 1022.4 |
| 20260506104635 | 36 | 0 | 0.0 | 1.0 | 0.00 | 0.11 | 0.00 | 87 | 1022.5 |
| 20260506104058 | 36 | 0 | 0.0 | 1.0 | 0.00 | 0.11 | 0.00 | 87 | 1022.4 |
| 20260506103559 | 36 | 171 | 0.0 | 2.0 | 0.00 | 0.11 | 0.00 | 87 | 1022.5 |
| 20260506103103 | 37 | 161 | 1.0 | 2.0 | 0.00 | 0.11 | 0.00 | 85 | 1022.4 |
| 20260506102559 | 37 | 0 | 0.0 | 1.0 | 0.00 | 0.11 | 0.00 | 86 | 1022.4 |
| 20260506102102 | 37 | 0 | 0.0 | 2.0 | 0.00 | 0.11 | 0.00 | 84 | 1022.4 |
| 20260506101557 | 37 | 0 | 1.0 | 2.0 | 0.00 | 0.11 | 0.00 | 84 | 1022.2 |
| 20260506101058 | 37 | 0 | 0.0 | 1.0 | 0.00 | 0.11 | 0.00 | 84 | 1022.2 |
| 20260506100558 | 37 | 0 | 0.0 | 0.0 | 0.00 | 0.11 | 0.00 | 83 | 1022.2 |
| 20260506100058 | 38 | 0 | 0.0 | 0.0 | 0.00 | 0.11 | 0.00 | 83 | 1022.3 |
| 20260506095601 | 38 | 0 | 0.0 | 1.0 | 0.00 | 0.12 | 0.00 | 83 | 1022.2 |
| 20260506095137 | 38 | 0 | 0.0 | 3.0 | 0.00 | 0.12 | 0.00 | 83 | 1022.2 |
| 20260506094556 | 38 | 0 | 0.0 | 3.0 | 0.00 | 0.12 | 0.00 | 83 | 1022.2 |
| 20260506094058 | 38 | 169 | 0.0 | 2.0 | 0.00 | 0.12 | 0.00 | 82 | 1022.2 |
| 20260506093558 | 39 | 0 | 0.0 | 1.0 | 0.00 | 0.12 | 0.00 | 82 | 1022.1 |
| 20260506093059 | 39 | 0 | 0.0 | 2.0 | 0.00 | 0.12 | 0.00 | 81 | 1022.1 |
| 20260506092600 | 39 | 226 | 0.0 | 2.0 | 0.00 | 0.12 | 0.00 | 82 | 1022.1 |
| 20260506092058 | 39 | 207 | 0.0 | 0.0 | 0.00 | 0.12 | 0.00 | 82 | 1022.1 |
| 20260506091556 | 39 | 0 | 0.0 | 0.0 | 0.00 | 0.12 | 0.00 | 82 | 1022.0 |
| 20260506091059 | 39 | 0 | 0.0 | 1.0 | 0.00 | 0.12 | 0.00 | 80 | 1022.0 |
| 20260506090558 | 40 | 0 | 0.0 | 1.0 | 0.00 | 0.12 | 0.00 | 80 | 1021.8 |
| 20260506090059 | 40 | 0 | 0.0 | 1.0 | 0.00 | 0.12 | 0.00 | 80 | 1021.8 |
| 20260506085558 | 40 | 0 | 0.0 | 2.0 | 0.00 | 0.12 | 0.00 | 80 | 1021.9 |
| 20260506085058 | 40 | 0 | 0.0 | 2.0 | 0.00 | 0.12 | 0.00 | 80 | 1021.8 |
| 20260506084559 | 40 | 161 | 0.0 | 3.0 | 0.00 | 0.12 | 0.00 | 82 | 1021.7 |
| 20260506084058 | 40 | 0 | 0.0 | 3.0 | 0.00 | 0.12 | 0.00 | 81 | 1021.7 |
| 20260506083559 | 40 | 151 | 0.0 | 3.0 | 0.00 | 0.12 | 0.00 | 82 | 1021.8 |
| 20260506083059 | 40 | 0 | 0.0 | 0.0 | 0.00 | 0.12 | 0.00 | 82 | 1021.9 |
| 20260506082558 | 40 | 0 | 0.0 | 0.0 | 0.00 | 0.12 | 0.00 | 81 | 1021.7 |
| 20260506082058 | 41 | 0 | 0.0 | 1.0 | 0.00 | 0.12 | 0.00 | 81 | 1021.7 |
| 20260506081600 | 41 | 0 | 0.0 | 2.0 | 0.00 | 0.12 | 0.00 | 81 | 1021.7 |
| 20260506081058 | 41 | 0 | 0.0 | 3.0 | 0.00 | 0.12 | 0.00 | 81 | 1021.8 |
| 20260506080558 | 41 | 0 | 0.0 | 3.0 | 0.00 | 0.12 | 0.00 | 82 | 1022.0 |
| 20260506080111 | 41 | 171 | 0.0 | 1.0 | 0.00 | 0.12 | 0.00 | 82 | 1022.2 |
| 20260506073100 | 41 | 0 | 0.0 | 0.0 | 0.00 | 0.12 | 0.00 | 80 | 1021.5 |
| 20260506072603 | 41 | 0 | 0.0 | 0.0 | 0.00 | 0.12 | 0.00 | 79 | 1021.3 |
| 20260506072059 | 41 | 0 | 0.0 | 1.0 | 0.00 | 0.12 | 0.00 | 79 | 1021.5 |
| 20260506071621 | 41 | 0 | 0.0 | 1.0 | 0.00 | 0.12 | 0.00 | 78 | 1021.5 |
| 20260506071058 | 42 | 0 | 0.0 | 1.0 | 0.00 | 0.12 | 0.00 | 77 | 1021.5 |
| 20260506070558 | 41 | 186 | 0.0 | 0.0 | 0.00 | 0.12 | 0.00 | 78 | 1021.5 |
| 20260506062058 | 42 | 0 | 0.0 | 0.0 | 0.00 | 0.12 | 0.12 | 73 | 1020.9 |
| 20260506061600 | 43 | 0 | 0.0 | 1.0 | 0.00 | 0.12 | 0.12 | 70 | 1020.8 |
| 20260506061059 | 43 | 0 | 0.0 | 1.0 | 0.00 | 0.12 | 0.12 | 68 | 1020.9 |
| 20260506060602 | 43 | 0 | 0.0 | 1.0 | 0.00 | 0.12 | 0.12 | 66 | 1020.9 |
| 20260506051058 | 45 | 243 | 0.0 | 4.0 | 0.00 | 0.12 | 0.12 | 63 | 1020.2 |
| 20260506050557 | 45 | 233 | 0.0 | 4.0 | 0.00 | 0.12 | 0.12 | 64 | 1020.2 |
| 20260506045056 | 45 | 198 | 0.0 | 2.0 | 0.00 | 0.12 | 0.12 | 66 | 1020.2 |
| 20260506044612 | 45 | 0 | 0.0 | 2.0 | 0.00 | 0.12 | 0.12 | 66 | 1020.2 |
| 20260506044056 | 45 | 0 | 0.0 | 4.0 | 0.00 | 0.12 | 0.12 | 66 | 1020.2 |
| 20260506043556 | 45 | 0 | 0.0 | 4.0 | 0.00 | 0.12 | 0.12 | 65 | 1020.0 |
| 20260506043059 | 45 | 222 | 0.0 | 1.0 | 0.00 | 0.12 | 0.12 | 65 | 1020.1 |
| 20260506042557 | 45 | 0 | 0.0 | 1.0 | 0.00 | 0.12 | 0.12 | 66 | 1019.9 |
| 20260506042056 | 45 | 0 | 0.0 | 2.0 | 0.00 | 0.12 | 0.12 | 65 | 1019.8 |
| 20260506041558 | 45 | 0 | 0.0 | 2.0 | 0.00 | 0.12 | 0.12 | 65 | 1019.7 |
| 20260506041056 | 45 | 0 | 0.0 | 2.0 | 0.00 | 0.12 | 0.12 | 65 | 1019.6 |
| 20260506040559 | 45 | 0 | 0.0 | 0.0 | 0.00 | 0.12 | 0.12 | 65 | 1019.6 |
| 20260506040059 | 45 | 0 | 0.0 | 2.0 | 0.00 | 0.12 | 0.12 | 65 | 1019.5 |
| 20260506035558 | 46 | 0 | 0.0 | 3.0 | 0.00 | 0.12 | 0.12 | 64 | 1019.6 |
| 20260506035057 | 45 | 150 | 0.0 | 3.0 | 0.00 | 0.12 | 0.12 | 65 | 1019.3 |
| 20260506034601 | 45 | 0 | 0.0 | 1.0 | 0.00 | 0.12 | 0.12 | 65 | 1019.3 |
| 20260506034057 | 46 | 0 | 0.0 | 1.0 | 0.00 | 0.12 | 0.12 | 64 | 1019.2 |
| 20260506033556 | 46 | 0 | 0.0 | 2.0 | 0.00 | 0.12 | 0.12 | 64 | 1019.0 |
| 20260506033059 | 46 | 236 | 0.0 | 2.0 | 0.00 | 0.12 | 0.12 | 64 | 1018.9 |
| 20260506032557 | 46 | 188 | 0.0 | 1.0 | 0.00 | 0.12 | 0.12 | 64 | 1018.8 |
| 20260506032057 | 46 | 0 | 0.0 | 1.0 | 0.00 | 0.12 | 0.12 | 64 | 1018.8 |
| 20260506031559 | 46 | 0 | 0.0 | 1.0 | 0.00 | 0.12 | 0.12 | 65 | 1018.6 |
| 20260506031100 | 46 | 213 | 0.0 | 2.0 | 0.00 | 0.12 | 0.12 | 64 | 1018.6 |
| 20260506030556 | 46 | 252 | 0.0 | 2.0 | 0.00 | 0.12 | 0.12 | 64 | 1018.6 |
| 20260506030056 | 46 | 0 | 0.0 | 3.0 | 0.00 | 0.12 | 0.12 | 63 | 1018.5 |
| 20260506025556 | 46 | 239 | 0.0 | 3.0 | 0.00 | 0.12 | 0.12 | 62 | 1018.4 |
| 20260506025056 | 47 | 0 | 0.0 | 2.0 | 0.00 | 0.12 | 0.12 | 62 | 1018.4 |
| 20260506024558 | 47 | 0 | 0.0 | 1.0 | 0.00 | 0.12 | 0.12 | 61 | 1018.3 |
| 20260506024058 | 48 | 0 | 0.0 | 1.0 | 0.00 | 0.12 | 0.12 | 60 | 1018.2 |
| 20260506023558 | 48 | 0 | 0.0 | 1.0 | 0.00 | 0.12 | 0.12 | 59 | 1018.1 |
| 20260506023102 | 49 | 0 | 0.0 | 1.0 | 0.00 | 0.12 | 0.12 | 58 | 1018.2 |
| 20260506022557 | 49 | 0 | 0.0 | 1.0 | 0.00 | 0.12 | 0.12 | 58 | 1018.0 |
| 20260506022057 | 50 | 0 | 0.0 | 1.0 | 0.00 | 0.12 | 0.12 | 57 | 1017.9 |
| 20260506021605 | 50 | 0 | 0.0 | 1.0 | 0.00 | 0.12 | 0.12 | 57 | 1017.9 |
| 20260506021057 | 50 | 0 | 0.0 | 2.0 | 0.00 | 0.12 | 0.12 | 58 | 1017.7 |
| 20260506020559 | 50 | 258 | 0.0 | 2.0 | 0.00 | 0.12 | 0.12 | 57 | 1017.7 |
| 20260506015557 | 51 | 194 | 0.0 | 2.0 | 0.00 | 0.15 | 0.12 | 56 | 1017.6 |
| 20260506015057 | 51 | 150 | 0.0 | 1.0 | 0.00 | 0.15 | 0.12 | 56 | 1017.6 |
| 20260506014600 | 52 | 0 | 0.0 | 2.0 | 0.00 | 0.15 | 0.12 | 55 | 1017.5 |
| 20260506014056 | 52 | 250 | 0.0 | 2.0 | 0.00 | 0.15 | 0.12 | 54 | 1017.5 |
| 20260506013556 | 52 | 0 | 0.0 | 2.0 | 0.00 | 0.15 | 0.12 | 54 | 1017.4 |
| 20260506013107 | 52 | 298 | 0.0 | 2.0 | 0.00 | 0.15 | 0.12 | 53 | 1017.4 |
| 20260506012556 | 53 | 0 | 0.0 | 2.0 | 0.00 | 0.15 | 0.12 | 53 | 1017.3 |
| 20260506012100 | 53 | 317 | 0.0 | 5.0 | 0.00 | 0.15 | 0.12 | 52 | 1017.3 |
| 20260506011601 | 53 | 0 | 0.0 | 5.0 | 0.00 | 0.15 | 0.12 | 51 | 1017.3 |
| 20260506011057 | 54 | 304 | 1.0 | 3.0 | 0.00 | 0.15 | 0.12 | 47 | 1017.3 |
| 20260506010557 | 56 | 5 | 1.0 | 5.0 | 0.00 | 0.15 | 0.12 | 47 | 1017.3 |
| 20260506010058 | 55 | 0 | 1.0 | 5.0 | 0.00 | 0.15 | 0.12 | 45 | 1017.0 |
| 20260506005556 | 56 | 0 | 1.0 | 6.0 | 0.00 | 0.15 | 0.12 | 47 | 1017.0 |
| 20260506005057 | 56 | 310 | 1.0 | 6.0 | 0.00 | 0.15 | 0.12 | 47 | 1016.9 |
| 20260506004604 | 55 | 0 | 0.0 | 4.0 | 0.00 | 0.15 | 0.12 | 49 | 1016.8 |
| 20260506004057 | 55 | 299 | 1.0 | 4.0 | 0.00 | 0.15 | 0.12 | 49 | 1016.8 |
| 20260506003601 | 55 | 317 | 1.0 | 4.0 | 0.00 | 0.15 | 0.12 | 49 | 1016.8 |
| 20260506003118 | 55 | 0 | 1.0 | 4.0 | 0.00 | 0.15 | 0.12 | 49 | 1016.8 |
| 20260506002558 | 54 | 0 | 1.0 | 3.0 | 0.00 | 0.15 | 0.12 | 53 | 1016.8 |
| 20260506002056 | 53 | 0 | 1.0 | 5.0 | 0.00 | 0.15 | 0.12 | 55 | 1016.8 |
| 20260506001611 | 53 | 285 | 0.0 | 5.0 | 0.00 | 0.15 | 0.12 | 55 | 1016.8 |
| 20260506001057 | 53 | 302 | 1.0 | 4.0 | 0.00 | 0.15 | 0.12 | 57 | 1016.6 |
| 20260506000557 | 52 | 295 | 1.0 | 4.0 | 0.00 | 0.15 | 0.12 | 57 | 1016.7 |
| 20260506000112 | 52 | 220 | 1.0 | 4.0 | 0.00 | 0.15 | 0.12 | 57 | 1016.8 |
| 20260505235557 | 52 | 198 | 0.0 | 7.0 | 0.00 | 0.15 | 0.12 | 56 | 1016.7 |
| 20260505235057 | 53 | 0 | 2.0 | 7.0 | 0.00 | 0.15 | 0.12 | 55 | 1016.8 |
| 20260505234613 | 53 | 215 | 1.0 | 6.0 | 0.00 | 0.15 | 0.12 | 55 | 1016.7 |
| 20260505234059 | 54 | 315 | 1.0 | 5.0 | 0.00 | 0.15 | 0.12 | 56 | 1016.7 |
| 20260505233557 | 54 | 0 | 1.0 | 4.0 | 0.00 | 0.15 | 0.12 | 57 | 1016.5 |
| 20260505233100 | 53 | 138 | 1.0 | 8.0 | 0.00 | 0.15 | 0.12 | 57 | 1016.5 |
| 20260505232557 | 53 | 0 | 2.0 | 8.0 | 0.00 | 0.15 | 0.12 | 55 | 1016.6 |
| 20260505232059 | 54 | 316 | 1.0 | 8.0 | 0.00 | 0.15 | 0.12 | 57 | 1016.5 |
| 20260505231600 | 53 | 184 | 2.0 | 6.0 | 0.00 | 0.15 | 0.12 | 58 | 1016.5 |
| 20260505231057 | 52 | 0 | 1.0 | 9.0 | 0.00 | 0.15 | 0.12 | 55 | 1016.5 |
| 20260505230559 | 52 | 145 | 2.0 | 9.0 | 0.00 | 0.15 | 0.12 | 57 | 1016.6 |
| 20260505230058 | 52 | 315 | 2.0 | 6.0 | 0.00 | 0.15 | 0.12 | 57 | 1016.5 |
| 20260505225559 | 53 | 229 | 0.0 | 6.0 | 0.00 | 0.15 | 0.12 | 49 | 1016.5 |
| 20260505225058 | 53 | 280 | 2.0 | 6.0 | 0.00 | 0.15 | 0.12 | 48 | 1016.3 |
| 20260505224557 | 53 | 332 | 3.0 | 6.0 | 0.00 | 0.15 | 0.12 | 47 | 1016.3 |
| 20260505224056 | 54 | 315 | 1.0 | 4.0 | 0.00 | 0.15 | 0.12 | 47 | 1016.1 |
| 20260505223556 | 54 | 312 | 1.0 | 5.0 | 0.00 | 0.15 | 0.12 | 47 | 1016.2 |
| 20260505223108 | 54 | 59 | 2.0 | 5.0 | 0.00 | 0.15 | 0.12 | 48 | 1016.4 |
| 20260505222556 | 54 | 142 | 1.0 | 5.0 | 0.00 | 0.15 | 0.12 | 49 | 1016.4 |
| 20260505222056 | 55 | 354 | 1.0 | 5.0 | 0.00 | 0.15 | 0.12 | 48 | 1016.3 |
| 20260505221557 | 54 | 0 | 2.0 | 7.0 | 0.00 | 0.15 | 0.12 | 47 | 1016.4 |
| 20260505221058 | 54 | 49 | 3.0 | 7.0 | 0.00 | 0.15 | 0.12 | 49 | 1016.4 |
| 20260505220557 | 55 | 293 | 2.0 | 5.0 | 0.00 | 0.15 | 0.12 | 47 | 1016.5 |
| 20260505220100 | 54 | 60 | 1.0 | 5.0 | 0.00 | 0.15 | 0.12 | 50 | 1016.5 |
| 20260505215602 | 53 | 353 | 2.0 | 7.0 | 0.00 | 0.15 | 0.12 | 51 | 1016.5 |
| 20260505215057 | 53 | 47 | 2.0 | 7.0 | 0.00 | 0.15 | 0.12 | 53 | 1016.6 |
| 20260505214604 | 53 | 113 | 0.0 | 6.0 | 0.00 | 0.15 | 0.12 | 54 | 1016.6 |
| 20260505214057 | 52 | 57 | 3.0 | 6.0 | 0.00 | 0.15 | 0.12 | 53 | 1016.6 |
| 20260505213559 | 51 | 331 | 2.0 | 5.0 | 0.00 | 0.15 | 0.12 | 56 | 1016.7 |
| 20260505213057 | 50 | 95 | 2.0 | 5.0 | 0.00 | 0.15 | 0.12 | 55 | 1016.7 |
| 20260505212556 | 51 | 45 | 2.0 | 5.0 | 0.00 | 0.15 | 0.12 | 56 | 1016.7 |
| 20260505212058 | 51 | 74 | 0.0 | 4.0 | 0.00 | 0.15 | 0.12 | 55 | 1016.7 |
| 20260505211634 | 52 | 0 | 1.0 | 4.0 | 0.00 | 0.15 | 0.12 | 52 | 1016.6 |
| 20260505211057 | 53 | 0 | 1.0 | 4.0 | 0.00 | 0.15 | 0.12 | 57 | 1016.6 |
| 20260505210556 | 53 | 0 | 1.0 | 4.0 | 0.00 | 0.15 | 0.12 | 58 | 1016.6 |
| 20260505210058 | 51 | 66 | 1.0 | 4.0 | 0.00 | 0.15 | 0.12 | 58 | 1016.5 |
| 20260505205557 | 51 | 140 | 1.0 | 5.0 | 0.00 | 0.15 | 0.12 | 58 | 1016.6 |
| 20260505205058 | 52 | 0 | 2.0 | 5.0 | 0.00 | 0.15 | 0.12 | 56 | 1016.8 |
| 20260505204559 | 52 | 0 | 0.0 | 3.0 | 0.00 | 0.15 | 0.12 | 62 | 1016.6 |
| 20260505204100 | 51 | 56 | 1.0 | 3.0 | 0.00 | 0.15 | 0.12 | 59 | 1016.6 |
| 20260505203557 | 52 | 259 | 0.0 | 3.0 | 0.00 | 0.15 | 0.12 | 60 | 1016.7 |
| 20260505203126 | 51 | 138 | 0.0 | 3.0 | 0.00 | 0.15 | 0.12 | 64 | 1016.8 |
| 20260505202557 | 50 | 255 | 0.0 | 5.0 | 0.00 | 0.15 | 0.12 | 65 | 1016.8 |
| 20260505202057 | 48 | 240 | 2.0 | 5.0 | 0.00 | 0.15 | 0.12 | 65 | 1016.8 |
| 20260505201556 | 48 | 102 | 2.0 | 5.0 | 0.00 | 0.15 | 0.12 | 69 | 1016.8 |
| 20260505201057 | 48 | 155 | 2.0 | 4.0 | 0.00 | 0.15 | 0.12 | 66 | 1016.7 |
| 20260505200558 | 48 | 248 | 1.0 | 4.0 | 0.00 | 0.15 | 0.12 | 69 | 1017.0 |
| 20260505200058 | 48 | 250 | 0.0 | 3.0 | 0.00 | 0.15 | 0.12 | 67 | 1017.1 |
| 20260505195558 | 48 | 229 | 0.0 | 3.0 | 0.00 | 0.15 | 0.12 | 64 | 1017.1 |
| 20260505195058 | 48 | 174 | 1.0 | 5.0 | 0.00 | 0.15 | 0.12 | 64 | 1017.1 |
| 20260505194558 | 46 | 0 | 2.0 | 5.0 | 0.00 | 0.15 | 0.12 | 67 | 1017.2 |
| 20260505194058 | 46 | 52 | 1.0 | 5.0 | 0.00 | 0.15 | 0.12 | 70 | 1017.2 |
| 20260505193557 | 46 | 42 | 0.0 | 6.0 | 0.00 | 0.15 | 0.12 | 69 | 1017.2 |
| 20260505193054 | 47 | 321 | 2.0 | 6.0 | 0.00 | 0.15 | 0.12 | 68 | 1017.2 |
| 20260505192559 | 48 | 72 | 1.0 | 5.0 | 0.00 | 0.15 | 0.12 | 64 | 1017.2 |
| 20260505192057 | 48 | 0 | 1.0 | 5.0 | 0.00 | 0.15 | 0.12 | 71 | 1017.0 |
| 20260505191558 | 48 | 46 | 0.0 | 5.0 | 0.00 | 0.15 | 0.12 | 71 | 1016.8 |
| 20260505191058 | 48 | 51 | 0.0 | 3.0 | 0.00 | 0.15 | 0.12 | 70 | 1016.8 |
| 20260505190558 | 47 | 0 | 0.0 | 3.0 | 0.00 | 0.15 | 0.12 | 74 | 1016.8 |
| 20260505190059 | 46 | 0 | 1.0 | 3.0 | 0.00 | 0.15 | 0.12 | 74 | 1016.8 |
| 20260505185558 | 46 | 15 | 0.0 | 3.0 | 0.00 | 0.15 | 0.12 | 83 | 1016.7 |
| 20260505185058 | 45 | 79 | 1.0 | 2.0 | 0.00 | 0.15 | 0.12 | 80 | 1016.7 |
| 20260505184558 | 45 | 1 | 1.0 | 2.0 | 0.00 | 0.15 | 0.12 | 82 | 1016.7 |
| 20260505184058 | 44 | 0 | 0.0 | 1.0 | 0.00 | 0.15 | 0.12 | 85 | 1016.7 |
| 20260505183557 | 43 | 0 | 0.0 | 3.0 | 0.00 | 0.15 | 0.12 | 84 | 1016.6 |
| 20260505183102 | 42 | 0 | 0.0 | 3.0 | 0.00 | 0.15 | 0.12 | 84 | 1016.6 |
| 20260505182600 | 42 | 83 | 0.0 | 1.0 | 0.00 | 0.15 | 0.12 | 83 | 1016.5 |
| 20260505182101 | 41 | 0 | 0.0 | 2.0 | 0.00 | 0.15 | 0.12 | 85 | 1016.6 |
| 20260505181555 | 41 | 64 | 0.0 | 2.0 | 0.00 | 0.15 | 0.12 | 86 | 1016.5 |
| 20260505181057 | 41 | 51 | 0.0 | 1.0 | 0.00 | 0.15 | 0.12 | 87 | 1016.4 |
| 20260505180558 | 41 | 0 | 0.0 | 1.0 | 0.00 | 0.15 | 0.12 | 86 | 1016.3 |
| 20260505175558 | 40 | 103 | 1.0 | 2.0 | 0.00 | 0.15 | 0.12 | 88 | 1016.2 |
| 20260505175104 | 40 | 60 | 0.0 | 1.0 | 0.00 | 0.15 | 0.12 | 89 | 1016.1 |